IRIDIUM 106 1 41917U 17003A 26165.30474787 .00000000 00000+0 -70107-5 0 9993 2 41917 86.3963 89.7612 0001776 83.7791 276.3607 14.34217439492798 IRIDIUM 103 1 41918U 17003B 26165.22229490 .00000079 00000+0 21279-4 0 9994 2 41918 86.3962 89.6954 0002353 78.5633 281.5827 14.34217803492804 IRIDIUM 109 1 41919U 17003C 26165.50771162 .00000010 00000+0 -35327-5 0 9990 2 41919 86.3961 89.6356 0002162 83.1600 276.9842 14.34217520492816 IRIDIUM 102 1 41920U 17003D 26165.26669300 .00000055 00000+0 12663-4 0 9990 2 41920 86.3961 89.6598 0002221 85.5715 274.5735 14.34217856492867 IRIDIUM 105 1 41921U 17003E 26165.22529203 .00000173 00000+0 54708-4 0 9991 2 41921 86.3968 58.1087 0002522 83.8566 276.2917 14.34218710494715 IRIDIUM 104 1 41922U 17003F 26165.27937873 .00000043 00000+0 84346-5 0 9991 2 41922 86.3963 89.6971 0002492 81.4207 278.7271 14.34217775492857 IRIDIUM 114 1 41923U 17003G 26165.49502672 .00000021 00000+0 39644-6 0 9999 2 41923 86.3963 89.5902 0002347 81.1710 278.9752 14.34217600492860 IRIDIUM 108 1 41924U 17003H 26165.45354726 .00000088 00000+0 24232-4 0 9999 2 41924 86.3961 57.9034 0002245 86.7227 273.4225 14.34218064494711 IRIDIUM 112 1 41925U 17003J 26165.34280412 .00000064 00000+0 15764-4 0 9992 2 41925 86.3959 89.4959 0002341 83.7918 276.3545 14.34217733492869 IRIDIUM 111 1 41926U 17003K 26165.33012742 .00000177 00000+0 56113-4 0 9999 2 41926 86.3961 89.5717 0002242 82.1840 277.9610 14.34216577492846 IRIDIUM 113 1 42803U 17039A 26165.51938896 .00000028 00000+0 30552-5 0 9995 2 42803 86.3968 323.2942 0002289 89.1895 270.9563 14.34217770470802 IRIDIUM 123 1 42804U 17039B 26165.49109843 .00000071 00000+0 18200-4 0 9998 2 42804 86.3970 354.7644 0002026 85.0852 275.0575 14.34217384469562 IRIDIUM 120 1 42805U 17039C 26165.51304269 .00000219 00000+0 71182-4 0 9993 2 42805 86.3957 323.0796 0002011 94.5248 265.6178 14.34215603470796 IRIDIUM 115 1 42806U 17039D 26165.48399581 .00000152 00000+0 39160-4 0 9997 2 42806 86.4494 323.2201 0001978 89.1502 270.9926 14.43281926473874 IRIDIUM 118 1 42807U 17039E 26165.52281065 .00000130 00000+0 39384-4 0 9994 2 42807 86.3971 354.7494 0002204 88.5431 271.6018 14.34218556469564 IRIDIUM 117 1 42808U 17039F 26165.47207064 .00000053 00000+0 11834-4 0 9990 2 42808 86.3971 354.7284 0002115 86.2877 273.8561 14.34218002469587 IRIDIUM 126 1 42809U 17039G 26165.49744106 .00000066 00000+0 16609-4 0 9995 2 42809 86.3970 354.7686 0002222 85.7136 274.4313 14.34217775469560 IRIDIUM 124 1 42810U 17039H 26165.41781845 .00000272 00000+0 74807-4 0 9993 2 42810 86.4480 291.5168 0002173 92.8587 267.2862 14.43280819474717 IRIDIUM 128 1 42811U 17039J 26165.34864208 .00000083 00000+0 22696-4 0 9990 2 42811 86.3969 26.3373 0001993 87.3605 272.7819 14.34218096469579 IRIDIUM 121 1 42812U 17039K 26165.51646874 .00000156 00000+0 48621-4 0 9994 2 42812 86.3971 354.7884 0002119 90.6797 269.4642 14.34218292469449 IRIDIUM 133 1 42955U 17061A 26165.31058528 .00000068 00000+0 17244-4 0 9997 2 42955 86.3970 26.4707 0002102 85.7348 274.4088 14.34217227454364 IRIDIUM 100 1 42956U 17061B 26165.37401087 .00000155 00000+0 48287-4 0 9994 2 42956 86.3968 26.3631 0002157 86.9864 273.1578 14.34216970454378 IRIDIUM 122 1 42957U 17061C 26165.13299484 -.00000024 00000+0 -15718-4 0 9995 2 42957 86.3966 26.4638 0002078 84.0096 276.1337 14.34217200454343 IRIDIUM 129 1 42958U 17061D 26165.15836510 .00000109 00000+0 31893-4 0 9999 2 42958 86.3970 26.5204 0002422 86.3902 273.7571 14.34218060454363 IRIDIUM 119 1 42959U 17061E 26165.33595771 .00000035 00000+0 55964-5 0 9995 2 42959 86.3970 26.4419 0002241 84.0241 276.1210 14.34217698454409 IRIDIUM 107 1 42960U 17061F 26165.35498470 .00000046 00000+0 93001-5 0 9993 2 42960 86.3971 26.4550 0001968 82.4786 277.6634 14.34217642454415 IRIDIUM 132 1 42961U 17061G 26165.36132786 .00000072 00000+0 18759-4 0 9995 2 42961 86.3970 26.4321 0002188 85.0938 275.0507 14.34217536454417 IRIDIUM 136 1 42962U 17061H 26165.53258865 .00000178 00000+0 56427-4 0 9993 2 42962 86.3972 26.3670 0002186 88.4189 271.7257 14.34218573454450 IRIDIUM 139 1 42963U 17061J 26165.32961456 .00000080 00000+0 21350-4 0 9997 2 42963 86.3971 26.5138 0002048 87.0887 273.0543 14.34217951454438 IRIDIUM 125 1 42964U 17061K 26165.31692890 .00000115 00000+0 33996-4 0 9998 2 42964 86.3975 26.5801 0002290 73.6284 286.5163 14.34218409454448 IRIDIUM 135 1 43070U 17083A 26165.50036078 .00000013 00000+0 -25721-5 0 9998 2 43070 86.3962 323.1389 0002177 91.3625 268.7821 14.34217667443761 IRIDIUM 138 1 43071U 17083B 26165.52573023 .00000057 00000+0 13445-4 0 9993 2 43071 86.3976 322.8235 0002337 86.7921 273.3542 14.34218323443759 IRIDIUM 116 1 43072U 17083C 26165.49401753 .00000047 00000+0 97660-5 0 9991 2 43072 86.3960 323.1275 0001929 97.3782 262.7633 14.34217935443784 IRIDIUM 130 1 43073U 17083D 26165.46230459 -.00000016 00000+0 -12655-4 0 9990 2 43073 86.3966 323.4159 0001820 90.9495 269.1910 14.34217299443721 IRIDIUM 151 1 43074U 17083E 26165.50670344 .00000019 00000+0 -34933-6 0 9994 2 43074 86.3963 323.1799 0002143 92.2565 267.8876 14.34217655443753 IRIDIUM 134 1 43075U 17083F 26165.47498972 .00000047 00000+0 98421-5 0 9997 2 43075 86.3964 323.2012 0002089 90.4694 269.6741 14.34218041443713 IRIDIUM 137 1 43076U 17083G 26165.48767534 .00000040 00000+0 71899-5 0 9995 2 43076 86.3966 323.2886 0002177 103.5957 256.5481 14.34217867443789 IRIDIUM 141 1 43077U 17083H 26165.48133286 .00000020 00000+0 -30201-7 0 9990 2 43077 86.3957 323.1222 0002090 90.7330 269.4106 14.34217647443782 IRIDIUM 153 1 43078U 17083J 26165.43351200 .00000024 00000+0 13806-5 0 9997 2 43078 86.3958 291.6223 0002282 90.0303 270.1155 14.34217729444886 IRIDIUM 131 1 43079U 17083K 26165.46864683 .00000102 00000+0 29504-4 0 9993 2 43079 86.3967 323.3132 0002211 91.9646 268.1803 14.34218489443713 IRIDIUM 144 1 43249U 18030A 26165.43985332 .00000059 00000+0 14072-4 0 9992 2 43249 86.3957 291.5488 0002086 96.2321 263.9112 14.34218120429744 IRIDIUM 149 1 43250U 18030B 26165.44619700 -.00000005 00000+0 -87792-5 0 9991 2 43250 86.3953 291.5133 0002135 93.6924 266.4516 14.34217488429768 IRIDIUM 157 1 43251U 18030C 26165.39545612 .00000021 00000+0 55685-6 0 9999 2 43251 86.3956 291.5874 0002202 93.6615 266.4833 14.34217769429737 IRIDIUM 140 1 43252U 18030D 26165.41448394 .00000018 00000+0 -75983-6 0 9992 2 43252 86.3956 291.5920 0002138 92.9563 267.1877 14.34217643429795 IRIDIUM 145 1 43253U 18030E 26165.40179814 .00000065 00000+0 16100-4 0 9995 2 43253 86.3955 291.5696 0001954 100.0094 260.1323 14.34217666429727 IRIDIUM 146 1 43254U 18030F 26165.45253939 .00000021 00000+0 31688-6 0 9994 2 43254 86.3957 291.5607 0002097 96.2848 263.8587 14.34217706429743 IRIDIUM 148 1 43255U 18030G 26165.42082681 .00000053 00000+0 11773-4 0 9992 2 43255 86.3957 291.6170 0002247 96.8519 263.2932 14.34217820429776 IRIDIUM 142 1 43256U 18030H 26165.38911285 .00000167 00000+0 52396-4 0 9991 2 43256 86.3953 291.5193 0002066 97.7923 262.3507 14.34218056429731 IRIDIUM 150 1 43257U 18030J 26165.42716916 .00000017 00000+0 -97201-6 0 9992 2 43257 86.3955 291.6199 0002017 93.2913 266.8514 14.34217551429766 IRIDIUM 143 1 43258U 18030K 26165.40814086 .00000190 00000+0 60814-4 0 9997 2 43258 86.3961 291.7202 0002076 96.7278 263.4154 14.34217470429692 IRIDIUM 161 1 43478U 18047C 26165.32643155 .00000286 00000+0 79065-4 0 9991 2 43478 86.4483 89.6672 0002539 85.5993 274.5498 14.43281564424723 IRIDIUM 152 1 43479U 18047D 26165.52039674 .00000060 00000+0 14338-4 0 9991 2 43479 86.3959 89.4472 0002337 83.8118 276.3344 14.34217911422108 IRIDIUM 147 1 43480U 18047E 26165.52673935 .00000019 00000+0 -10562-6 0 9999 2 43480 86.3960 89.4497 0002147 85.5443 274.5998 14.34217537422107 IRIDIUM 110 1 43481U 18047F 26165.32377703 .00000086 00000+0 23501-4 0 9990 2 43481 86.3962 89.6269 0002693 81.9507 278.1994 14.34215722422061 IRIDIUM 162 1 43482U 18047G 26165.52813183 .00000280 00000+0 77382-4 0 9992 2 43482 86.4481 89.4740 0002292 82.7592 277.3869 14.43280281424740 IRIDIUM 160 1 43569U 18061A 26165.40914936 .00000066 00000+0 16649-4 0 9990 2 43569 86.3964 57.9590 0002274 85.6230 274.5226 14.34217856412971 IRIDIUM 166 1 43570U 18061B 26165.43451939 .00000059 00000+0 13891-4 0 9992 2 43570 86.3965 57.8990 0002116 86.1489 273.9949 14.34217853413001 IRIDIUM 158 1 43571U 18061C 26165.40280670 .00000045 00000+0 91372-5 0 9998 2 43571 86.3963 57.9221 0002214 81.9521 278.1926 14.34217619412963 IRIDIUM 165 1 43572U 18061D 26165.42817559 .00000112 00000+0 33077-4 0 9995 2 43572 86.3965 57.9579 0002067 86.2478 273.8954 14.34217325412997 IRIDIUM 155 1 43573U 18061E 26165.45988980 .00000038 00000+0 66251-5 0 9994 2 43573 86.3960 57.8138 0002126 82.2233 277.9204 14.34217656412961 IRIDIUM 154 1 43574U 18061F 26165.44085918 .00000218 00000+0 70859-4 0 9991 2 43574 86.3966 57.9553 0002109 87.3547 272.7891 14.34219474413017 IRIDIUM 163 1 43575U 18061G 26165.42182876 .00000097 00000+0 27533-4 0 9997 2 43575 86.3960 57.8785 0002264 83.6377 276.5077 14.34216590412989 IRIDIUM 156 1 43576U 18061H 26165.39646278 .00000215 00000+0 69760-4 0 9995 2 43576 86.3960 57.8963 0002061 81.1435 278.9994 14.34218101412974 IRIDIUM 164 1 43577U 18061J 26165.44720432 .00000090 00000+0 25192-4 0 9999 2 43577 86.3963 57.9155 0002109 88.8695 271.2743 14.34217976413021 IRIDIUM 159 1 43578U 18061K 26165.41549161 .00000123 00000+0 36953-4 0 9999 2 43578 86.3961 57.8655 0002282 84.0650 276.0806 14.34217872412987 IRIDIUM 180 1 43922U 19002A 26165.48475610 .00000008 00000+0 -40462-5 0 9996 2 43922 86.3968 354.7275 0002161 89.1677 270.9766 14.34217504388606 IRIDIUM 176 1 43923U 19002B 26165.50821679 .00000685 00000+0 10474-3 0 9998 2 43923 86.6090 354.6617 0002264 92.3516 267.7961 14.72263830398851 IRIDIUM 168 1 43924U 19002C 26165.47841323 .00000055 00000+0 12677-4 0 9992 2 43924 86.3973 354.8076 0002170 89.0609 271.0835 14.34218085388589 IRIDIUM 173 1 43925U 19002D 26165.46572854 .00000063 00000+0 15318-4 0 9996 2 43925 86.3967 354.7015 0002217 87.0722 273.0727 14.34217642388569 IRIDIUM 169 1 43926U 19002E 26165.33090189 .00000252 00000+0 76015-4 0 9990 2 43926 86.4226 26.3877 0001955 71.7252 288.4159 14.38607765389814 IRIDIUM 172 1 43927U 19002F 26165.52915372 .00000122 00000+0 36350-4 0 9996 2 43927 86.3969 354.6831 0002257 89.1429 271.0025 14.34217585388586 IRIDIUM 175 1 43928U 19002G 26165.43393174 .00000270 00000+0 73837-4 0 9992 2 43928 86.4510 291.6720 0002130 188.5799 171.5366 14.43611316398584 IRIDIUM 171 1 43929U 19002H 26165.51012654 -.00000130 00000+0 -53529-4 0 9996 2 43929 86.3975 354.9970 0001900 88.8196 271.3218 14.34216557388577 IRIDIUM 170 1 43930U 19002J 26165.51439826 .00000691 00000+0 10572-3 0 9992 2 43930 86.6090 354.6615 0002357 88.6512 271.4975 14.72264339398867 IRIDIUM 167 1 43931U 19002K 26165.50378307 .00000011 00000+0 -31078-5 0 9991 2 43931 86.3967 354.7159 0001747 89.5713 270.5683 14.34217616388574 IRIDIUM 181 1 56726U 23068S 26165.40260892 .00000274 00000+0 75468-4 0 9992 2 56726 86.4501 57.9545 0002288 89.3466 270.7997 14.43311459162031 IRIDIUM 177 1 56727U 23068T 26165.48330735 .00000975 00000+0 12479-3 0 9995 2 56727 86.1959 330.0758 0002388 87.2073 272.9422 14.80225807165963 IRIDIUM 174 1 56728U 23068U 26165.50205500 .00000709 00000+0 10847-3 0 9992 2 56728 86.6098 354.8138 0002497 84.3641 275.7861 14.72260572165629 IRIDIUM 178 1 56729U 23068V 26165.33723648 .00000880 00000+0 11237-3 0 9996 2 56729 86.6539 26.5513 0002660 86.8291 273.3235 14.80229358165940 IRIDIUM 179 1 56730U 23068W 26165.12903485 .00000654 00000+0 82600-4 0 9996 2 56730 86.6782 35.6093 0002449 88.8685 271.2817 14.80232418165911